RYR3GX EPSC-EGSS

Flight info

Callsign RYR3GX
Flight time 1h 39m
Altitude 38000
Route PESEL L87 KETAP L619 PODUS DCT BATEL DCT NOGRO M40 RINIS
Aircraft B738/M-SDE2E3FGHIRWXY/LB1

Departure

Time 2026-05-05 12:21
Airport Solidarity Szczecin–Goleniów Airport (EPSC)

Arrival

Time 2026-05-05 14:00
Airport London Stansted Airport (EGSS)
Time Latitude Longitude Altitude Speed Heading
2026-05-05 12:19 53.59160 14.89312 141 ft 16 kts 311°
2026-05-05 12:19 53.59230 14.89176 141 ft 15 kts 311°
2026-05-05 12:19 53.59259 14.89023 140 ft 14 kts 260°
2026-05-05 12:20 53.59230 14.88867 139 ft 14 kts 225°
2026-05-05 12:20 53.59141 14.88929 140 ft 29 kts 131°
2026-05-05 12:20 53.58831 14.89535 139 ft 106 kts 131°
2026-05-05 12:20 53.58205 14.90764 202 ft 163 kts 130°
2026-05-05 12:21 53.57440 14.92204 964 ft 166 kts 131°
2026-05-05 12:21 53.56642 14.93671 1765 ft 175 kts 131°
2026-05-05 12:21 53.55759 14.95343 2167 ft 208 kts 129°
2026-05-05 12:21 53.54786 14.97274 2557 ft 230 kts 129°
2026-05-05 12:22 53.53716 14.99381 3166 ft 241 kts 129°
2026-05-05 12:22 53.52542 15.01412 4087 ft 244 kts 145°
2026-05-05 12:22 53.50939 15.02272 5007 ft 247 kts 179°
2026-05-05 12:22 53.49233 15.01511 5542 ft 269 kts 212°
2026-05-05 12:23 53.47756 14.99490 6330 ft 277 kts 220°
2026-05-05 12:23 53.46311 14.97330 7252 ft 279 kts 219°
2026-05-05 12:23 53.44883 14.95208 8276 ft 277 kts 219°
2026-05-05 12:23 53.43661 14.92721 9230 ft 280 kts 241°
2026-05-05 12:24 53.42874 14.89734 10240 ft 280 kts 244°
2026-05-05 12:24 53.42085 14.86645 10728 ft 299 kts 245°
2026-05-05 12:24 53.41237 14.83319 10998 ft 321 kts 246°
2026-05-05 12:24 53.40345 14.79826 11635 ft 330 kts 246°
2026-05-05 12:25 53.39434 14.76275 12459 ft 332 kts 246°
2026-05-05 12:25 53.38518 14.72719 13301 ft 334 kts 246°
2026-05-05 12:25 53.37593 14.69138 14075 ft 336 kts 246°
2026-05-05 12:25 53.36656 14.65524 14828 ft 339 kts 245°
2026-05-05 12:26 53.35710 14.61883 15527 ft 344 kts 245°
2026-05-05 12:26 53.34751 14.58207 16287 ft 345 kts 245°
2026-05-05 12:26 53.33785 14.54510 17014 ft 348 kts 245°
2026-05-05 12:26 53.32811 14.50790 17700 ft 351 kts 245°
2026-05-05 12:27 53.31825 14.47032 18371 ft 354 kts 245°
2026-05-05 12:27 53.30831 14.43248 19016 ft 357 kts 245°
2026-05-05 12:27 53.29827 14.39435 19659 ft 360 kts 245°
2026-05-05 12:27 53.28815 14.35593 20269 ft 363 kts 245°
2026-05-05 12:28 53.27794 14.31726 20869 ft 366 kts 245°
2026-05-05 12:28 53.26761 14.27822 21433 ft 369 kts 245°
2026-05-05 12:28 53.25719 14.23891 21988 ft 372 kts 245°
2026-05-05 12:28 53.24667 14.19929 22516 ft 375 kts 245°
2026-05-05 12:29 53.23605 14.15935 23034 ft 378 kts 245°
2026-05-05 12:29 53.22534 14.11913 23532 ft 380 kts 245°
2026-05-05 12:29 53.21455 14.07870 24016 ft 383 kts 245°
2026-05-05 12:29 53.20366 14.03791 24505 ft 386 kts 244°
2026-05-05 12:30 53.19268 13.99689 24993 ft 387 kts 245°
2026-05-05 12:30 53.18165 13.95579 25464 ft 390 kts 245°
2026-05-05 12:30 53.17053 13.91437 25880 ft 393 kts 245°
2026-05-05 12:30 53.15933 13.87278 26335 ft 395 kts 245°
2026-05-05 12:31 53.14806 13.83102 26801 ft 395 kts 245°
2026-05-05 12:31 53.13674 13.78913 27218 ft 397 kts 245°
2026-05-05 12:31 53.12537 13.74714 27612 ft 399 kts 245°
2026-05-05 12:31 53.11391 13.70490 27970 ft 402 kts 245°
2026-05-05 12:32 53.10236 13.66238 28334 ft 404 kts 245°
2026-05-05 12:32 53.09079 13.61984 28715 ft 405 kts 245°
2026-05-05 12:32 53.07912 13.57706 29081 ft 406 kts 245°
2026-05-05 12:32 53.06741 13.53419 29426 ft 408 kts 245°
2026-05-05 12:33 53.05565 13.49121 29753 ft 410 kts 245°
2026-05-05 12:33 53.04384 13.44811 30162 ft 408 kts 245°
2026-05-05 12:33 53.03210 13.40540 30651 ft 405 kts 245°
2026-05-05 12:33 53.02043 13.36298 31091 ft 403 kts 245°
2026-05-05 12:34 53.00874 13.32057 31442 ft 404 kts 245°
2026-05-05 12:34 52.99704 13.27817 31751 ft 405 kts 245°
2026-05-05 12:34 52.98531 13.23573 32139 ft 403 kts 245°
2026-05-05 12:34 52.97361 13.19353 32529 ft 402 kts 245°
2026-05-05 12:35 52.96257 13.15095 32861 ft 402 kts 251°
2026-05-05 12:35 52.95557 13.10605 33190 ft 403 kts 258°
2026-05-05 12:35 52.95168 13.06008 33548 ft 403 kts 264°
2026-05-05 12:35 52.95167 13.01360 33874 ft 404 kts 271°
2026-05-05 12:36 52.95370 12.96722 34226 ft 403 kts 271°
2026-05-05 12:36 52.95568 12.92093 34510 ft 403 kts 271°
2026-05-05 12:36 52.95709 12.87452 34719 ft 403 kts 266°
2026-05-05 12:36 52.95454 12.82842 34997 ft 401 kts 259°
2026-05-05 12:37 52.94844 12.78347 35303 ft 399 kts 251°
2026-05-05 12:37 52.93892 12.74018 35525 ft 400 kts 249°
2026-05-05 12:37 52.92886 12.69714 35741 ft 401 kts 248°
2026-05-05 12:37 52.91875 12.65417 36009 ft 400 kts 248°
2026-05-05 12:38 52.90864 12.61116 36241 ft 401 kts 249°
2026-05-05 12:38 52.89855 12.56806 36421 ft 402 kts 249°
2026-05-05 12:38 52.88845 12.52480 36618 ft 403 kts 249°
2026-05-05 12:38 52.87838 12.48160 36874 ft 402 kts 249°
2026-05-05 12:39 52.86835 12.43853 37180 ft 400 kts 249°
2026-05-05 12:39 52.85837 12.39571 37474 ft 398 kts 249°
2026-05-05 12:39 52.84841 12.35309 37685 ft 398 kts 249°
2026-05-05 12:39 52.83855 12.31095 37852 ft 398 kts 249°
2026-05-05 12:40 52.81841 12.22508 37902 ft 402 kts 249°
2026-05-05 12:40 52.79819 12.13921 37896 ft 398 kts 249°
2026-05-05 12:41 52.77814 12.05441 37907 ft 395 kts 248°
2026-05-05 12:41 52.75816 11.97026 37905 ft 393 kts 248°
2026-05-05 12:42 52.73818 11.88646 37907 ft 392 kts 248°
2026-05-05 12:42 52.71818 11.80284 37909 ft 392 kts 248°
2026-05-05 12:43 52.69811 11.71930 37904 ft 393 kts 248°
2026-05-05 12:43 52.67787 11.63534 37902 ft 395 kts 248°
2026-05-05 12:44 52.65750 11.55117 37900 ft 396 kts 248°
2026-05-05 12:44 52.63698 11.46670 37901 ft 398 kts 248°
2026-05-05 12:45 52.61634 11.38208 37899 ft 399 kts 248°
2026-05-05 12:45 52.59555 11.29713 37898 ft 401 kts 248°
2026-05-05 12:46 52.57470 11.21216 37898 ft 401 kts 248°
2026-05-05 12:46 52.55401 11.12704 37892 ft 401 kts 251°
2026-05-05 12:47 52.54375 11.03696 37890 ft 403 kts 264°
2026-05-05 12:47 52.54033 10.94522 37891 ft 402 kts 264°
2026-05-05 12:48 52.53689 10.85420 37892 ft 401 kts 264°
2026-05-05 12:48 52.53323 10.76290 37888 ft 400 kts 264°
2026-05-05 12:49 52.52941 10.67179 37891 ft 399 kts 264°
2026-05-05 12:49 52.52549 10.58088 37889 ft 399 kts 264°
2026-05-05 12:50 52.52150 10.49022 37895 ft 398 kts 264°
2026-05-05 12:50 52.51746 10.39975 37893 ft 398 kts 264°
2026-05-05 12:51 52.51333 10.30923 37898 ft 397 kts 263°
2026-05-05 12:51 52.50916 10.21892 37911 ft 397 kts 263°
2026-05-05 12:52 52.50492 10.12853 37906 ft 397 kts 263°
2026-05-05 12:52 52.50061 10.03813 37909 ft 398 kts 263°
2026-05-05 12:53 52.49622 9.94758 37908 ft 398 kts 263°
2026-05-05 12:53 52.49177 9.85705 37909 ft 399 kts 263°
2026-05-05 12:54 52.48495 9.72157 37912 ft 400 kts 263°
2026-05-05 12:55 52.48028 9.63067 37919 ft 400 kts 263°
2026-05-05 12:55 52.47555 9.53964 37916 ft 401 kts 263°
2026-05-05 12:56 52.47074 9.44852 37918 ft 401 kts 263°
2026-05-05 12:56 52.46585 9.35726 37919 ft 402 kts 263°
2026-05-05 12:57 52.46088 9.26600 37915 ft 402 kts 263°
2026-05-05 12:57 52.45584 9.17472 37916 ft 402 kts 263°
2026-05-05 12:58 52.45074 9.08345 37917 ft 402 kts 263°
2026-05-05 12:58 52.44558 8.99220 37914 ft 402 kts 262°
2026-05-05 12:59 52.44032 8.90082 37919 ft 403 kts 262°
2026-05-05 12:59 52.43501 8.80948 37906 ft 404 kts 262°
2026-05-05 13:00 52.42685 8.67195 37917 ft 404 kts 262°
2026-05-05 13:01 52.41574 8.48884 37916 ft 404 kts 262°
2026-05-05 13:01 52.41009 8.39736 37917 ft 404 kts 262°
2026-05-05 13:02 52.40437 8.30587 37914 ft 404 kts 262°
2026-05-05 13:02 52.39857 8.21450 37917 ft 403 kts 262°
2026-05-05 13:03 52.39270 8.12314 37918 ft 404 kts 262°
2026-05-05 13:03 52.38676 8.03173 37918 ft 404 kts 262°
2026-05-05 13:04 52.38080 7.94098 37919 ft 404 kts 261°
2026-05-05 13:04 52.37472 7.84968 37914 ft 403 kts 261°
2026-05-05 13:05 52.36958 7.77322 37918 ft 403 kts 261°
2026-05-05 13:05 52.36338 7.68205 37917 ft 403 kts 261°
2026-05-05 13:06 52.35712 7.59098 37917 ft 403 kts 261°
2026-05-05 13:06 52.35078 7.49994 37913 ft 403 kts 261°
2026-05-05 13:07 52.34438 7.40876 37918 ft 403 kts 261°
2026-05-05 13:07 52.33789 7.31760 37919 ft 404 kts 261°
2026-05-05 13:08 52.33131 7.22627 37926 ft 405 kts 261°
2026-05-05 13:08 52.32471 7.13558 37925 ft 405 kts 261°
2026-05-05 13:09 52.31800 7.04402 37928 ft 406 kts 261°
2026-05-05 13:09 52.31118 6.95244 37928 ft 406 kts 261°
2026-05-05 13:10 52.30430 6.86081 37926 ft 407 kts 261°
2026-05-05 13:10 52.29733 6.76911 37925 ft 407 kts 261°
2026-05-05 13:11 52.29028 6.67722 37928 ft 408 kts 261°
2026-05-05 13:11 52.28316 6.58529 37926 ft 408 kts 260°
2026-05-05 13:12 52.27595 6.49327 37921 ft 409 kts 260°
2026-05-05 13:12 52.26866 6.40110 37922 ft 409 kts 260°
2026-05-05 13:13 52.26129 6.30893 37916 ft 409 kts 260°
2026-05-05 13:13 52.25387 6.21694 37914 ft 409 kts 260°
2026-05-05 13:14 52.24643 6.12562 37918 ft 408 kts 260°
2026-05-05 13:14 52.23888 6.03390 37915 ft 408 kts 260°
2026-05-05 13:15 52.23123 5.94221 37914 ft 408 kts 259°
2026-05-05 13:15 52.22355 5.85063 37919 ft 407 kts 259°
2026-05-05 13:16 52.21581 5.75910 37915 ft 408 kts 259°
2026-05-05 13:16 52.20798 5.66757 37920 ft 407 kts 259°
2026-05-05 13:17 52.20009 5.57620 37923 ft 407 kts 259°
2026-05-05 13:17 52.19210 5.48475 37924 ft 408 kts 259°
2026-05-05 13:18 52.18406 5.39334 37926 ft 408 kts 259°
2026-05-05 13:18 52.17597 5.30193 37925 ft 407 kts 259°
2026-05-05 13:19 52.16779 5.21054 37929 ft 408 kts 259°
2026-05-05 13:19 52.15954 5.11919 37934 ft 408 kts 259°
2026-05-05 13:20 52.15120 5.02778 37939 ft 408 kts 259°
2026-05-05 13:20 52.14277 4.93615 37937 ft 409 kts 259°
2026-05-05 13:21 52.13426 4.84451 37938 ft 410 kts 259°
2026-05-05 13:21 52.12572 4.75328 37936 ft 411 kts 259°
2026-05-05 13:22 52.11704 4.66129 37925 ft 412 kts 259°
2026-05-05 13:22 52.10829 4.56924 37927 ft 412 kts 259°
2026-05-05 13:23 52.09944 4.47713 37923 ft 413 kts 259°
2026-05-05 13:23 52.09049 4.38490 37914 ft 413 kts 259°
2026-05-05 13:24 52.08150 4.29270 37920 ft 413 kts 258°
2026-05-05 13:24 52.07241 4.20056 37922 ft 413 kts 258°
2026-05-05 13:25 52.06326 4.10853 37927 ft 412 kts 258°
2026-05-05 13:25 52.05407 4.01665 37928 ft 412 kts 258°
2026-05-05 13:26 52.04480 3.92476 37936 ft 412 kts 258°
2026-05-05 13:26 52.03546 3.83300 37935 ft 412 kts 258°
2026-05-05 13:27 52.03075 3.78700 37788 ft 415 kts 258°
2026-05-05 13:27 52.02598 3.74060 37365 ft 416 kts 258°
2026-05-05 13:27 52.02122 3.69434 36830 ft 415 kts 258°
2026-05-05 13:27 52.01645 3.64832 36334 ft 413 kts 258°
2026-05-05 13:28 52.01168 3.60243 35765 ft 412 kts 257°
2026-05-05 13:28 52.00688 3.55654 35169 ft 413 kts 257°
2026-05-05 13:28 52.00206 3.51061 34574 ft 413 kts 257°
2026-05-05 13:28 51.99730 3.46531 33971 ft 413 kts 257°
2026-05-05 13:29 51.99238 3.41877 33350 ft 413 kts 256°
2026-05-05 13:29 51.98751 3.37290 32720 ft 413 kts 256°
2026-05-05 13:29 51.98264 3.32712 32247 ft 410 kts 257°
2026-05-05 13:29 51.97789 3.28249 31800 ft 407 kts 256°
2026-05-05 13:30 51.97307 3.23744 31344 ft 403 kts 256°
2026-05-05 13:30 51.96819 3.19219 30883 ft 400 kts 256°
2026-05-05 13:30 51.96392 3.14833 30469 ft 398 kts 259°
2026-05-05 13:30 51.96071 3.10335 30044 ft 396 kts 260°
2026-05-05 13:31 51.95801 3.05962 29608 ft 394 kts 261°
2026-05-05 13:31 51.95534 3.01554 29159 ft 392 kts 261°
2026-05-05 13:31 51.95261 2.97178 28709 ft 389 kts 261°
2026-05-05 13:31 51.94980 2.92828 28256 ft 387 kts 261°
2026-05-05 13:32 51.94693 2.88498 27809 ft 385 kts 261°
2026-05-05 13:32 51.94403 2.84197 27360 ft 383 kts 261°
2026-05-05 13:32 51.94111 2.79920 26915 ft 381 kts 261°
2026-05-05 13:32 51.93820 2.75667 26473 ft 379 kts 261°
2026-05-05 13:33 51.93527 2.71425 26030 ft 377 kts 261°
2026-05-05 13:33 51.93236 2.67216 25588 ft 376 kts 261°
2026-05-05 13:33 51.92946 2.63017 25152 ft 374 kts 261°
2026-05-05 13:33 51.92658 2.58839 24705 ft 372 kts 262°
2026-05-05 13:34 51.92373 2.54683 24269 ft 370 kts 262°
2026-05-05 13:34 51.92087 2.50549 23840 ft 369 kts 262°
2026-05-05 13:34 51.91801 2.46434 23411 ft 367 kts 262°
2026-05-05 13:34 51.91516 2.42344 22985 ft 365 kts 262°
2026-05-05 13:35 51.91231 2.38276 22561 ft 363 kts 262°
2026-05-05 13:35 51.90945 2.34226 22143 ft 362 kts 262°
2026-05-05 13:35 51.90697 2.30186 21739 ft 360 kts 265°
2026-05-05 13:35 51.90582 2.26136 21374 ft 360 kts 267°
2026-05-05 13:36 51.90513 2.22060 21010 ft 365 kts 267°
2026-05-05 13:36 51.90446 2.17937 20629 ft 369 kts 267°
2026-05-05 13:36 51.90369 2.13783 20245 ft 368 kts 267°
2026-05-05 13:36 51.90283 2.09662 19859 ft 365 kts 267°
2026-05-05 13:37 51.90189 2.05568 19481 ft 363 kts 267°
2026-05-05 13:37 51.90093 2.01502 19107 ft 361 kts 266°
2026-05-05 13:37 51.89996 1.97505 18741 ft 359 kts 267°
2026-05-05 13:37 51.89894 1.93425 18368 ft 357 kts 266°
2026-05-05 13:38 51.89890 1.89477 17992 ft 356 kts 277°
2026-05-05 13:38 51.90630 1.85679 17689 ft 354 kts 295°
2026-05-05 13:38 51.91764 1.82154 17388 ft 352 kts 297°
2026-05-05 13:38 51.92952 1.78642 17068 ft 350 kts 298°
2026-05-05 13:39 51.94125 1.75195 16756 ft 348 kts 298°
2026-05-05 13:39 51.95270 1.71807 16444 ft 347 kts 298°
2026-05-05 13:39 51.96419 1.68372 16140 ft 346 kts 298°
2026-05-05 13:39 51.97554 1.64949 15841 ft 345 kts 298°
2026-05-05 13:40 51.98684 1.61524 15532 ft 344 kts 297°
2026-05-05 13:40 51.99806 1.58106 15230 ft 343 kts 298°
2026-05-05 13:40 52.00923 1.54697 14927 ft 342 kts 297°
2026-05-05 13:40 52.02034 1.51300 14630 ft 341 kts 297°
2026-05-05 13:41 52.03143 1.47901 14319 ft 340 kts 297°
2026-05-05 13:41 52.04248 1.44513 14019 ft 338 kts 297°
2026-05-05 13:41 52.05343 1.41148 13715 ft 337 kts 297°
2026-05-05 13:41 52.06435 1.37792 13419 ft 335 kts 297°
2026-05-05 13:42 52.07520 1.34451 13124 ft 334 kts 297°
2026-05-05 13:42 52.08599 1.31123 12832 ft 332 kts 297°
2026-05-05 13:42 52.09673 1.27807 12530 ft 329 kts 298°
2026-05-05 13:42 52.10729 1.24539 12236 ft 324 kts 297°
2026-05-05 13:43 52.11453 1.21120 11937 ft 320 kts 277°
2026-05-05 13:43 52.11350 1.17563 11720 ft 313 kts 258°
2026-05-05 13:43 52.10818 1.14168 11521 ft 307 kts 255°
2026-05-05 13:43 52.10250 1.10852 11296 ft 301 kts 255°
2026-05-05 13:44 52.09687 1.07602 11078 ft 296 kts 255°
2026-05-05 13:44 52.09136 1.04402 10867 ft 292 kts 255°
2026-05-05 13:44 52.08595 1.01228 10659 ft 290 kts 255°
2026-05-05 13:44 52.08062 0.98077 10458 ft 289 kts 255°
2026-05-05 13:45 52.07531 0.94925 10239 ft 288 kts 256°
2026-05-05 13:45 52.07002 0.91790 10039 ft 287 kts 256°
2026-05-05 13:45 52.06478 0.88677 9838 ft 285 kts 256°
2026-05-05 13:45 52.05955 0.85575 9632 ft 283 kts 256°
2026-05-05 13:46 52.05436 0.82496 9430 ft 282 kts 256°
2026-05-05 13:46 52.04917 0.79424 9227 ft 281 kts 256°
2026-05-05 13:46 52.04400 0.76368 9030 ft 280 kts 256°
2026-05-05 13:46 52.03885 0.73331 8825 ft 279 kts 256°
2026-05-05 13:47 52.03372 0.70297 8632 ft 278 kts 256°
2026-05-05 13:47 52.02864 0.67309 8433 ft 278 kts 255°
2026-05-05 13:47 52.02350 0.64292 8243 ft 276 kts 255°
2026-05-05 13:47 52.01838 0.61293 8043 ft 276 kts 255°
2026-05-05 13:48 52.01417 0.58244 7623 ft 283 kts 264°
2026-05-05 13:48 52.01264 0.55064 7195 ft 280 kts 267°
2026-05-05 13:48 52.01139 0.51927 6726 ft 277 kts 267°
2026-05-05 13:48 52.00994 0.48776 6270 ft 275 kts 266°
2026-05-05 13:49 52.00851 0.45760 6040 ft 269 kts 268°
2026-05-05 13:49 52.00732 0.42704 6016 ft 272 kts 268°
2026-05-05 13:49 52.00617 0.39646 6012 ft 271 kts 268°
2026-05-05 13:49 52.00499 0.36626 5992 ft 264 kts 267°
2026-05-05 13:50 52.00382 0.33726 5976 ft 251 kts 267°
2026-05-05 13:50 52.00269 0.30964 5973 ft 242 kts 267°
2026-05-05 13:50 52.00110 0.28274 5987 ft 240 kts 256°
2026-05-05 13:50 51.99242 0.26002 6016 ft 241 kts 224°
2026-05-05 13:51 51.98000 0.24130 5997 ft 246 kts 223°
2026-05-05 13:51 51.96737 0.22223 5988 ft 250 kts 223°
2026-05-05 13:51 51.95434 0.20261 5606 ft 260 kts 223°
2026-05-05 13:51 51.94104 0.18255 5237 ft 263 kts 223°
2026-05-05 13:52 51.92756 0.16221 4866 ft 266 kts 223°
2026-05-05 13:52 51.91391 0.14162 4495 ft 270 kts 223°
2026-05-05 13:52 51.90010 0.12077 4111 ft 273 kts 223°
2026-05-05 13:52 51.88617 0.09973 3727 ft 275 kts 223°
2026-05-05 13:53 51.87210 0.07850 3326 ft 278 kts 223°
2026-05-05 13:53 51.85793 0.05712 3028 ft 276 kts 223°
2026-05-05 13:53 51.84889 0.04337 2992 ft 263 kts 223°
2026-05-05 13:53 51.83608 0.02382 2974 ft 244 kts 223°
2026-05-05 13:54 51.82420 0.00568 2976 ft 227 kts 223°
2026-05-05 13:54 51.81310 -0.01119 2998 ft 211 kts 223°
2026-05-05 13:54 51.80143 -0.02432 2980 ft 203 kts 194°
2026-05-05 13:54 51.78762 -0.02360 3001 ft 202 kts 157°
2026-05-05 13:55 51.77589 -0.01150 3001 ft 201 kts 135°
2026-05-05 13:55 51.76658 0.00529 2989 ft 201 kts 117°
2026-05-05 13:55 51.76255 0.02627 2998 ft 194 kts 90°
2026-05-05 13:55 51.76488 0.04743 2996 ft 192 kts 62°
2026-05-05 13:56 51.77388 0.06293 3008 ft 190 kts 41°
2026-05-05 13:56 51.78241 0.07893 2844 ft 186 kts 53°
2026-05-05 13:56 51.79109 0.09405 2624 ft 183 kts 42°
2026-05-05 13:56 51.80047 0.10769 2383 ft 181 kts 42°
2026-05-05 13:57 51.80963 0.12132 2146 ft 178 kts 43°
2026-05-05 13:57 51.81867 0.13493 1916 ft 176 kts 43°
2026-05-05 13:57 51.82762 0.14843 1682 ft 176 kts 43°
2026-05-05 13:57 51.83651 0.16183 1443 ft 174 kts 43°
2026-05-05 13:58 51.84530 0.17507 1212 ft 171 kts 43°
2026-05-05 13:58 51.85386 0.18795 996 ft 164 kts 43°
2026-05-05 13:58 51.86186 0.19999 810 ft 150 kts 43°
2026-05-05 13:58 51.86935 0.21128 600 ft 146 kts 43°
2026-05-05 13:59 51.88353 0.23265 337 ft 113 kts 43°
2026-05-05 13:59 51.88784 0.23905 341 ft 76 kts 42°
2026-05-05 14:00 51.89107 0.24564 349 ft 27 kts 67°
2026-05-05 14:00 51.89172 0.24822 353 ft 20 kts 79°
2026-05-05 14:00 51.89199 0.25013 351 ft 16 kts 44°
2026-05-05 14:00 51.89246 0.25129 356 ft 12 kts 58°
2026-05-05 14:01 51.89298 0.25231 360 ft 12 kts 42°
2026-05-05 14:01 51.89359 0.25322 351 ft 12 kts 42°
2026-05-05 14:01 51.89421 0.25425 357 ft 13 kts 69°
2026-05-05 14:01 51.89386 0.25550 351 ft 13 kts 118°
2026-05-05 14:02 51.89338 0.25661 357 ft 9 kts 129°
2026-05-05 14:02 51.89353 0.25715 351 ft 5 kts 45°
2026-05-05 14:02 51.89365 0.25734 355 ft 0 kts 42°